BEIDOU-3 M9 (C29)

Last updated on Sun Jun 21 2026 00:03:32 GMT+0000 (Coordinated Universal Time)

1 43245U 18029A 26171.17043730 -.00000089 00000+0 00000+0 0 9996 2 43245 54.1908 299.8436 0000998 153.7677 206.2347 1.86227999 55951
UTC large
Height (km)
Speed (km/s)
/
Latitude / Longitude
Inclination (degrees)
Orbital Period (minutes)
Azimuth
Elevation
Range (km)
Doppler Factor

Next 0 passes for location: London (51.5072 / 0.1276)

No passes found over London.
BEIDOU-3 M9 (C29)